Location: Ellingshausen
(50.5460°N, 10.4723°E)
Time: 19:38:59
(UTC+00:00)

Gbstr 26 Del rocket - Pass Details

Date: 18 January 2026
Orbit: 490 x 1217 km, 51.8° (Epoch: 16 February)

Event Time Altitude Azimuth Distance (km) Brightness Sun altitude
Exits shadow 04:33:39 30° 223° (SW) 1,907 5.2 -24.3°
Maximum altitude 04:37:27 64° 153° (SSE) 1,188 4.5 -23.7°
Drops below altitude 10° 04:43:56 10° 73° (ENE) 2,693 7.3 -22.7°
Sets 04:46:20 0° 70° (ENE) 3,535 8.0 -22.3°
